Location: Pl�tzky
(52.0521°N, 11.8020°E)
Time: 05:51:20
(UTC+00:00)

Cosmos 2369 Rocket - Pass Details

Date: 22 November 2019
Orbit: 830 x 851 km, 71.0° (Epoch: 12 December)

Event Time Altitude Azimuth Distance (km) Brightness Sun altitude
Rises 18:24:28 0° 319° (NW) 3,384 5.9 -28.9°
Reaches altitude 10° 18:28:50 10° 351° (N) 2,450 4.7 -29.5°
Enters shadow 18:30:04 12° 4° (N) 2,343 4.5 -29.7°
